GFSFLT2_sfc_dewp_174.txt.gz
Dewpoint
68 70 70 70 69 69 69 70 70 71 71 71 71 70 70 70 70 70 69 68 68 67 66 66 66 67 66 65 66 66 64 66
68 68 68 68 69 68 69 69 70 70 70 70 69 69 69 69 69 68 67 66 65 66 65 64 65 64 64 64 64 64 64 64
67 67 66 67 68 69 70 70 70 69 69 68 67 66 66 65 66 66 64 64 64 62 61 60 59 60 61 61 60 59 64 64
66 66 67 67 68 68 68 69 69 68 67 66 65 63 63 61 63 64 62 61 60 59 57 56 52 50 52 55 55 54 57 63
65 65 66 66 66 66 67 68 67 67 65 65 63 62 60 58 53 52 52 51 47 48 47 47 48 48 49 50 49 50 55 62
64 65 65 64 65 65 65 65 66 66 64 64 61 59 55 51 49 48 48 47 46 46 46 46 46 47 46 46 45 51 59 59
64 64 65 65 64 65 65 64 63 62 63 61 59 55 51 48 46 46 46 45 45 45 45 44 45 45 45 45 45 51 56 57
64 64 64 64 64 64 62 58 57 57 59 57 55 52 48 46 45 45 44 44 44 44 44 44 44 43 42 44 44 48 55 56
64 64 64 64 62 61 57 53 53 53 53 52 50 48 46 46 45 44 44 44 44 44 44 43 41 41 43 44 46 51 54 54
64 64 63 62 59 57 53 50 50 49 48 48 47 47 46 45 45 44 44 44 43 43 42 39 39 41 42 47 53 54 53 52
63 64 62 58 55 54 52 50 48 46 47 47 47 46 46 45 44 44 43 43 43 43 41 39 40 43 45 48 51 51 51 50
64 63 59 56 54 50 48 47 46 45 46 46 46 45 45 44 44 43 42 42 42 40 39 41 42 47 45 42 43 44 46 47
64 61 58 55 52 50 47 45 44 45 47 46 45 45 45 44 43 42 41 41 41 39 39 39 40 41 40 38 38 38 38 40
62 60 56 56 54 52 48 46 44 44 45 44 44 44 44 43 42 40 39 39 40 40 38 37 37 38 41 39 36 36 36 37
61 59 57 55 51 50 49 48 48 49 47 44 43 43 43 42 41 39 38 38 37 37 38 36 35 36 38 40 37 35 36 37
60 57 55 53 52 50 49 48 46 45 44 42 42 42 42 42 41 39 39 38 37 37 37 37 37 34 35 35 37 38 36 32
56 55 53 52 52 51 50 47 45 43 42 41 40 40 41 41 40 38 37 37 36 36 36 35 35 36 34 34 33 33 34 33
53 51 50 50 50 50 48 45 44 41 40 39 40 39 39 39 38 37 37 36 36 35 35 34 34 34 34 34 34 32 30 30
50 50 49 50 49 49 48 46 44 42 41 40 39 38 37 36 36 36 36 36 36 36 34 33 32 33 32 32 33 32 32 31
51 50 51 51 49 48 47 45 44 42 41 40 39 38 36 35 35 35 35 36 35 35 34 32 31 31 29 30 31 31 32 31

GFSFLT2_sfc_dewp_177.txt.gz
Dewpoint
70 70 71 70 70 69 69 70 71 71 71 71 71 71 70 71 70 70 70 69 68 67 66 66 67 67 66 66 66 66 65 65
70 71 71 71 71 68 69 69 70 70 70 70 69 70 70 70 69 69 68 67 67 66 65 66 65 65 65 65 65 65 63 62
69 69 71 71 71 70 70 70 70 70 70 69 68 69 69 68 67 66 66 65 64 63 62 61 61 62 62 61 62 63 62 63
67 67 68 70 68 69 70 70 70 70 69 70 68 68 67 66 65 63 63 62 61 60 57 56 56 53 53 56 54 58 61 63
66 66 67 68 67 68 68 69 69 68 69 69 67 66 64 63 62 59 57 55 52 51 51 50 52 52 52 52 52 56 60 62
65 65 66 68 67 67 68 67 68 68 68 68 66 63 61 58 56 55 54 52 52 51 49 51 51 49 50 50 54 57 58 59
64 65 65 67 68 67 67 66 67 67 67 67 65 62 59 55 54 52 51 50 49 49 48 47 48 48 48 48 54 57 58 57
64 66 66 66 66 66 66 65 66 65 66 65 64 61 58 54 52 50 48 48 47 47 46 47 45 46 47 48 51 55 57 58
64 66 66 66 66 66 64 63 63 63 63 64 62 59 57 55 52 49 48 48 49 48 48 45 43 44 47 48 53 55 55 55
65 66 66 65 64 64 61 59 61 60 59 58 60 57 55 53 50 48 48 47 46 46 44 42 43 46 52 51 54 55 55 55
65 66 65 64 63 62 59 57 58 57 57 55 55 53 52 51 49 48 48 46 46 45 43 43 44 52 52 52 53 51 50 50
65 65 64 62 61 60 55 54 54 53 54 53 52 50 50 50 48 48 47 44 44 42 43 47 48 51 48 47 48 48 49 48
64 63 62 62 58 55 52 51 50 50 52 50 50 49 49 49 47 46 46 44 44 45 48 48 48 49 46 44 43 45 46 46
64 63 61 61 59 58 56 51 50 51 51 49 48 48 48 47 47 45 44 44 44 46 48 46 45 46 46 45 42 40 41 42
64 63 60 60 59 53 52 49 50 49 49 48 46 47 47 47 45 44 44 44 43 44 46 47 44 42 46 46 41 40 39 39
64 61 60 58 56 55 52 53 50 50 49 47 46 46 45 45 44 43 42 42 43 43 41 42 43 42 41 40 44 41 38 35
57 56 54 54 55 54 54 52 49 47 46 46 45 45 46 44 43 42 41 40 41 41 41 41 40 39 41 39 41 40 40 36
51 51 51 52 52 50 49 47 46 45 44 44 43 44 43 42 41 40 40 39 39 39 39 39 39 39 37 38 37 38 37 36
50 50 50 50 51 51 50 48 47 46 44 44 42 42 40 39 39 39 38 39 38 38 38 37 37 36 37 36 37 35 36 34
50 49 50 51 50 50 49 47 46 45 45 44 43 42 41 40 40 39 39 39 38 38 36 35 35 35 35 35 33 33 33 32

GFSFLT2_sfc_dewp_180.txt.gz
Dewpoint
70 70 70 70 70 70 70 70 71 71 71 71 71 71 71 71 71 71 70 70 69 68 67 67 67 67 66 66 66 66 63 62
70 70 70 70 71 69 69 70 70 70 71 70 70 70 70 70 70 70 69 69 67 67 67 67 66 66 66 66 66 66 60 59
68 68 70 70 70 69 70 70 70 70 70 69 68 68 69 69 68 68 67 66 66 65 64 64 64 63 62 63 64 59 59 59
67 68 68 69 66 70 69 69 69 70 69 70 67 67 67 65 66 65 65 64 62 61 59 59 59 57 57 58 58 62 60 60
65 68 69 68 66 69 69 69 69 70 70 69 67 67 67 66 64 62 62 61 57 56 55 56 57 57 57 58 58 59 58 62
64 66 68 68 66 68 68 68 69 69 69 70 67 66 66 65 63 62 61 59 59 58 56 57 56 55 55 56 58 57 58 60
64 65 66 67 67 67 67 68 68 68 68 69 66 64 65 64 63 61 59 58 58 56 55 53 52 52 51 52 55 57 57 57
64 65 67 67 66 67 66 67 68 68 68 67 68 65 64 62 61 58 57 56 54 53 51 50 47 49 49 50 53 54 56 58
64 65 66 67 67 67 66 66 67 67 66 68 67 66 64 62 59 57 55 54 54 52 50 47 46 45 48 50 53 55 56 57
63 65 66 67 66 66 65 65 66 65 66 67 66 65 64 62 58 56 54 52 50 48 45 44 44 45 48 49 52 55 56 56
63 66 66 66 67 67 66 65 65 65 64 64 66 63 61 60 57 55 54 50 48 46 44 44 44 48 49 51 52 51 53 52
65 66 66 67 66 66 64 64 63 61 61 60 61 59 59 58 55 55 53 49 47 44 45 44 47 50 47 50 51 50 51 51
66 66 66 66 64 62 59 60 56 56 56 55 56 56 56 57 54 53 52 49 47 47 46 48 49 50 48 48 49 51 50 49
66 66 65 64 63 62 60 57 54 54 54 53 52 53 55 54 53 52 50 47 48 47 48 46 48 49 46 46 44 45 47 47
66 65 64 64 62 59 54 53 52 51 51 52 52 52 53 51 51 49 49 47 45 48 49 48 46 49 50 46 43 40 43 45
66 64 62 62 59 56 54 56 53 53 53 52 51 51 49 48 47 47 46 45 46 46 47 50 48 46 48 45 48 45 41 40
60 59 57 57 57 56 56 52 50 48 48 46 47 48 48 46 46 45 46 46 45 45 44 44 45 45 46 44 44 44 45 41
54 54 54 54 52 52 50 49 48 47 46 45 45 44 44 45 45 44 45 43 43 42 43 42 42 41 41 42 41 41 40 39
51 51 51 51 51 51 51 50 49 48 47 45 44 44 43 44 45 44 43 42 41 41 40 40 40 40 40 39 41 41 39 38
53 51 51 51 51 52 51 50 49 49 47 46 47 45 44 44 44 44 43 43 43 43 42 41 42 43 41 40 37 36 36 35

GFSFLT2_sfc_dewp_186.txt.gz
Dewpoint
68 70 71 71 70 70 70 71 71 71 71 71 72 71 71 72 72 72 72 71 71 70 69 68 68 67 67 66 66 67 65 64
69 69 70 71 71 69 70 70 70 70 71 71 70 70 71 71 71 71 71 70 69 69 67 67 67 67 66 66 66 66 64 65
70 68 69 70 71 70 70 70 70 70 70 70 69 70 70 71 70 70 69 68 68 67 67 67 66 65 65 65 65 63 61 64
70 69 68 69 65 69 69 69 70 70 70 71 70 69 69 68 68 68 68 67 67 66 66 65 65 63 62 64 62 61 63 64
68 69 69 68 65 68 67 68 68 68 69 70 69 67 68 67 68 67 66 65 64 63 62 62 62 62 60 59 59 58 62 63
66 68 69 69 66 68 67 67 68 68 68 70 68 67 67 67 67 66 66 63 63 61 60 61 61 58 58 57 58 60 62 63
63 66 69 68 68 68 67 67 67 68 68 69 68 67 67 67 67 65 65 64 64 62 62 61 59 57 56 57 57 59 61 62
63 64 68 68 68 68 66 67 68 68 69 69 69 68 68 66 66 65 65 64 64 63 61 60 57 56 54 56 56 57 61 61
63 65 66 67 67 69 69 70 70 69 69 70 69 69 68 66 65 65 64 63 64 62 59 57 56 53 53 54 53 57 60 59
63 64 65 66 67 69 68 68 69 68 68 69 68 68 68 66 65 64 63 63 61 58 56 54 53 52 51 53 54 56 59 58
63 64 65 66 67 68 67 68 68 68 67 68 67 68 67 66 64 64 63 61 60 57 55 52 50 50 50 54 53 54 56 56
63 65 66 67 66 66 68 68 68 67 66 68 68 68 67 66 64 63 62 60 59 55 52 51 50 50 44 52 53 54 54 55
63 66 66 66 65 64 67 65 66 65 64 65 66 65 64 64 63 61 61 60 57 54 51 49 50 53 52 52 52 52 52 53
63 66 66 66 66 66 67 64 62 60 59 58 59 59 60 60 60 60 59 59 58 55 50 48 51 51 50 50 48 48 49 51
63 66 67 66 67 63 58 57 56 56 56 55 55 54 54 53 54 57 56 56 56 55 55 53 52 51 51 49 46 44 47 49
67 68 67 67 65 59 59 57 55 56 53 52 51 51 50 49 50 50 51 51 50 52 53 54 54 50 52 49 49 48 45 45
64 68 66 65 61 60 59 58 55 53 50 49 49 48 49 48 48 48 48 48 48 47 48 48 49 51 50 49 47 46 46 45
58 59 59 60 59 58 55 53 51 49 48 47 47 47 47 47 48 47 47 47 46 46 47 47 48 48 48 48 48 47 46 46
55 55 54 55 55 54 53 51 50 49 48 46 45 46 46 46 47 46 46 46 45 46 46 46 46 46 46 45 46 46 47 47
54 53 52 52 52 51 51 50 49 48 47 46 47 47 46 47 46 46 46 46 46 46 45 45 45 45 44 45 45 45 46 46

GFSFLT2_sfc_dewp_192.txt.gz
Dewpoint
70 72 72 71 70 70 70 70 71 71 71 71 71 71 70 71 71 71 71 70 70 69 69 68 68 67 66 65 65 66 63 63
70 71 71 71 71 69 69 70 70 70 70 70 70 70 70 70 70 71 70 70 70 69 68 68 67 66 65 65 65 64 66 67
69 70 70 70 70 71 70 70 70 70 70 70 68 69 69 70 70 70 70 69 69 68 67 66 66 65 65 65 64 63 66 67
68 69 69 69 69 70 71 70 70 70 70 69 68 68 68 70 69 69 69 68 68 67 66 66 66 63 62 63 62 65 66 66
66 68 69 69 69 69 70 70 70 70 69 69 68 68 68 68 67 68 67 67 66 65 65 64 64 63 62 60 60 64 64 65
66 66 68 69 69 68 68 68 69 69 69 68 68 68 67 66 66 66 65 64 63 63 63 62 62 62 61 58 63 63 63 64
66 66 66 67 68 68 68 68 68 68 68 68 68 67 67 67 66 65 64 63 63 61 61 60 60 59 57 61 62 62 63 63
66 66 66 66 66 67 67 68 68 67 68 68 68 67 66 66 66 65 64 64 63 61 61 60 59 56 56 61 62 61 61 61
67 66 66 65 65 65 66 66 67 67 67 68 67 67 66 66 66 65 65 64 63 62 61 60 57 54 54 60 60 59 59 59
67 67 66 66 64 66 65 66 66 66 66 68 68 66 66 66 66 65 65 64 63 63 60 57 55 54 52 59 59 58 56 55
66 67 67 66 65 67 66 66 66 66 67 68 68 67 67 66 66 65 65 64 64 62 59 57 53 52 52 58 58 57 55 54
65 66 67 66 66 66 67 67 66 67 67 68 68 68 67 65 64 63 64 63 60 59 57 54 52 51 52 56 57 57 55 53
63 66 67 66 65 66 66 66 64 62 64 65 66 67 65 65 63 62 61 61 59 57 56 52 51 52 52 51 52 55 55 53
61 63 64 65 65 65 64 62 59 58 57 57 59 62 62 62 61 61 60 58 58 57 56 54 54 55 52 52 49 51 52 54
62 63 64 64 61 60 59 58 57 56 55 55 54 56 57 59 58 58 58 59 56 55 56 55 54 55 54 53 49 48 49 52
64 64 64 62 61 61 61 61 59 57 55 53 54 54 55 55 56 55 54 54 52 52 53 54 55 52 52 52 52 51 47 45
62 63 62 61 60 61 61 58 55 55 53 51 50 51 52 52 53 52 52 52 52 52 53 53 53 52 50 49 51 50 50 48
59 61 60 59 58 59 60 58 54 52 50 50 49 49 50 51 52 52 52 52 52 53 53 53 53 52 51 51 50 49 48 47
56 57 55 56 58 58 57 56 55 54 51 50 49 48 49 50 51 52 51 51 50 51 50 50 50 50 49 48 48 48 48 48
53 55 54 54 54 54 54 53 52 51 51 50 50 49 49 51 51 50 49 50 48 48 48 48 48 48 47 47 47 47 47 47

GFSFLT2_sfc_dewp_195.txt.gz
Dewpoint
70 70 71 70 70 70 70 70 70 71 71 71 71 70 70 71 71 71 70 70 69 68 68 67 67 66 66 65 65 66 63 66
70 70 71 71 70 69 69 70 70 70 70 70 70 69 70 70 70 70 70 69 69 68 68 67 66 65 66 65 64 66 65 66
69 69 69 70 70 70 70 70 70 70 70 70 68 69 69 69 69 70 70 69 68 68 67 66 65 65 65 65 63 65 65 66
68 69 69 69 70 70 70 70 70 70 70 69 69 67 68 69 69 69 69 68 68 67 66 65 65 63 62 63 64 65 66 66
67 68 69 68 68 69 69 70 70 70 69 69 68 67 68 67 67 68 67 68 66 65 64 64 63 62 61 60 64 64 64 65
66 67 68 68 68 68 69 68 69 69 69 68 68 67 67 67 67 67 66 65 64 63 62 62 62 62 62 59 62 63 63 64
66 67 67 68 68 68 67 67 68 68 69 68 68 67 66 66 65 66 64 63 62 62 61 61 61 60 57 62 62 62 63 64
65 66 67 68 67 67 67 67 67 67 68 68 68 67 66 66 66 66 65 63 62 62 61 60 59 57 59 61 61 63 63 62
66 65 66 66 67 67 67 66 67 67 68 68 68 67 66 66 66 65 64 64 63 62 61 60 59 55 59 60 60 61 61 61
66 66 65 65 65 66 66 67 67 67 67 67 67 67 66 66 66 65 65 64 63 62 61 59 57 54 56 59 59 59 57 57
66 66 65 65 64 65 65 66 66 66 66 67 67 66 66 66 66 66 65 64 63 63 60 59 56 53 57 59 58 57 56 54
66 66 66 65 65 65 65 66 66 66 66 66 66 67 66 66 66 65 64 64 64 62 60 58 57 54 57 58 57 57 54 53
65 66 66 65 65 66 65 64 65 65 66 66 66 67 66 66 65 64 64 64 63 62 59 56 53 55 55 54 55 56 55 52
65 66 66 66 65 66 64 64 61 60 60 60 63 66 66 65 65 63 63 61 59 59 57 54 54 55 54 53 51 52 53 53
63 65 66 66 64 61 60 60 59 58 58 57 57 60 62 62 62 62 61 60 58 57 56 56 53 54 55 54 50 50 49 51
61 62 62 61 61 62 61 62 61 59 57 55 55 55 57 57 57 58 59 58 56 56 55 56 55 53 53 53 53 51 48 45
61 61 60 59 60 60 60 58 56 55 54 53 54 54 54 54 55 57 57 56 56 55 56 56 56 54 52 51 51 51 50 47
61 60 60 58 58 58 58 58 55 54 52 53 52 52 51 52 52 53 53 53 54 55 55 54 54 54 53 52 51 49 48 47
59 59 58 59 58 59 59 57 56 56 54 54 50 49 50 51 52 52 53 53 53 53 53 54 53 53 52 51 49 49 49 48
57 57 55 55 56 55 54 55 53 53 52 51 50 50 50 50 50 51 50 51 51 52 51 50 51 50 49 49 49 48 49 49